Location: Croisilles
(50.1998°N, 2.8793°E)
Time: 13:40:06
(UTC+00:00)

CZ-4 R/B - Pass Details

Date: 21 January 2021
Orbit: 530 x 599 km, 97.7° (Epoch: 26 February)

Event Time Altitude Azimuth Distance (km) Brightness Sun altitude
Rises 17:51:49 0° 152° (SSE) 2,796 4.8 -13.8°
Reaches altitude 10° 17:54:01 10° 148° (SSE) 1,890 3.9 -14.1°
Maximum altitude 17:58:01 54° 71° (ENE) 702 1.4 -14.7°
Drops below altitude 10° 18:01:57 10° 355° (N) 1,865 3.9 -15.3°
Sets 18:04:06 0° 351° (N) 2,754 4.9 -15.7°
